Wind_Speed
0 2 3 1 4 5 1 2 1 3 4 13 12 11 14 18 6 3 8 11 19 22 24 23 22 20 18 11 8 12 11 1 5 2 3 2 4 4 4 5 6 7 8 9 10 8 8 7 8
0 1 1 3 5 4 4 1 4 4 11 11 11 8 14 6 14 3 5 20 21 21 21 21 23 21 18 15 13 10 13 13 8 1 5 3 1 4 6 8 9 9 9 10 9 10 9 8 8
1 2 2 4 4 5 4 4 4 8 10 3 6 14 6 6 9 9 16 18 18 19 19 21 21 20 18 19 15 14 13 13 13 10 6 4 7 4 3 7 9 10 10 10 10 10 10 9 9
2 1 5 4 4 5 3 3 10 6 8 10 12 11 9 11 4 13 14 15 15 17 19 19 20 20 21 19 19 20 19 18 16 12 8 9 5 9 11 11 12 11 11 11 12 12 11 11 11
1 2 4 4 3 2 3 7 6 5 6 8 2 6 6 8 8 9 12 14 16 17 17 18 19 19 21 19 17 18 17 16 16 16 13 10 10 12 10 12 13 13 14 13 13 14 14 13 13
2 3 4 3 4 4 4 5 5 7 7 6 9 8 5 5 6 10 13 15 17 18 19 19 19 19 20 19 19 19 19 18 17 16 15 13 12 11 13 13 13 14 15 16 16 14 15 15 14
5 4 3 4 6 3 3 2 5 6 6 10 5 5 7 6 10 10 11 12 13 15 17 19 20 21 20 20 20 19 21 21 19 18 17 15 13 14 15 15 16 17 17 18 18 18 17 17 17
3 4 3 1 5 4 1 5 5 8 5 4 5 5 3 7 8 9 11 14 17 18 20 20 20 20 21 22 22 23 23 22 22 21 19 17 15 16 16 16 20 20 19 19 21 21 21 20 20
2 4 2 4 6 5 7 4 7 7 14 12 10 11 10 7 7 8 10 12 15 18 20 22 23 24 24 24 23 22 23 23 23 23 22 21 19 18 17 18 19 20 22 21 22 23 23 23 22
5 4 3 2 2 4 6 6 8 5 8 10 16 13 9 7 8 10 13 17 19 21 23 24 25 26 26 27 27 27 26 26 27 27 26 25 25 23 22 21 20 19 20 22 24 24 25 26 26
4 3 3 6 12 10 7 6 5 12 4 6 14 12 8 7 9 11 15 18 21 21 21 25 26 28 29 30 31 31 31 30 29 29 29 28 27 26 26 24 23 22 23 22 19 25 28 28 29
6 9 4 3 5 6 5 9 7 6 9 16 14 10 8 9 11 13 15 16 18 20 22 24 26 28 30 33 35 34 32 32 33 32 31 31 31 30 28 28 27 25 24 25 26 22 23 29 31
5 3 9 11 14 15 11 8 9 15 18 15 12 9 8 9 10 12 14 16 18 20 23 25 27 28 30 31 32 33 34 35 34 31 31 31 31 31 31 30 28 28 27 25 24 29 25 24 31
5 14 10 5 7 8 9 9 2 13 17 14 10 9 7 7 8 8 11 14 17 20 21 23 25 27 29 30 30 30 30 30 31 32 32 30 29 31 30 30 31 29 29 27 27 25 28 29 26
10 5 3 5 2 3 13 3 3 25 19 14 10 8 7 7 6 9 12 15 19 21 24 26 27 28 29 29 29 27 26 27 29 30 30 30 30 30 29 29 28 30 29 29 28 27 26 28 34
4 4 2 1 2 8 1 4 6 25 21 16 12 8 6 4 5 8 11 15 19 22 25 28 30 32 34 35 36 35 34 31 28 28 29 29 29 29 30 30 28 28 29 29 30 29 28 28 31
5 3 3 2 4 2 5 1 11 23 20 15 11 8 5 3 3 7 11 15 20 23 26 28 28 29 29 28 27 28 29 30 32 33 30 28 28 29 29 29 29 28 27 28 29 29 29 29 28
4 3 3 4 3 3 4 4 7 23 23 20 15 11 7 3 2 7 11 16 20 23 25 25 26 25 25 27 29 29 29 28 28 28 31 31 29 28 28 28 27 28 27 26 27 29 29 27 28
3 1 3 2 1 3 5 6 11 18 17 20 18 14 9 4 2 7 11 16 21 24 26 26 26 25 28 32 32 32 32 33 32 30 28 27 30 30 28 28 27 26 26 26 26 27 28 27 23
2 2 4 3 1 3 4 10 7 14 9 22 20 15 10 4 2 7 13 18 22 25 27 26 25 27 30 30 29 28 29 31 31 31 30 30 30 28 29 28 27 26 27 25 25 24 26 26 18
1 3 2 3 6 3 5 6 4 5 8 15 16 14 10 5 5 9 14 19 24 27 29 27 24 28 31 29 30 30 30 31 31 31 32 30 31 30 28 27 27 26 25 26 25 24 20 25 23
3 3 2 3 4 4 3 7 4 5 6 11 19 16 12 6 6 10 15 20 26 29 28 25 25 30 32 29 30 29 30 32 31 32 33 32 30 30 29 27 26 26 25 25 25 24 23 23 26
1 2 1 1 2 4 2 0 4 4 7 10 19 19 15 8 8 12 17 22 27 28 27 23 27 32 31 30 28 28 30 30 31 32 33 33 32 30 29 27 25 25 26 25 24 25 24 23 24
1 3 2 2 2 2 3 4 4 5 6 3 12 23 17 11 11 14 18 23 28 28 25 25 32 32 31 30 27 27 30 31 32 33 33 34 33 33 31 30 28 26 26 26 25 25 25 24 23
4 3 4 4 3 4 2 1 8 5 5 5 12 26 17 12 13 17 21 26 29 29 26 29 31 32 30 29 27 27 29 30 32 33 33 34 35 35 34 32 31 29 27 27 26 26 26 25 25
2 1 3 6 3 5 3 7 5 5 2 5 6 14 14 13 14 17 21 28 28 27 28 31 31 32 30 28 28 29 29 31 32 33 33 35 35 35 34 32 31 30 28 27 26 27 27 26 24
5 4 4 5 4 2 3 6 4 2 3 6 9 11 15 14 14 18 24 26 26 27 30 30 31 30 29 28 29 30 30 30 32 33 34 35 34 33 33 31 31 30 28 27 27 27 27 26 26
2 5 4 2 3 6 5 5 5 4 7 6 9 18 17 13 13 20 26 25 24 27 28 29 30 29 29 29 30 31 32 32 32 34 35 33 32 31 31 31 30 30 28 26 27 28 27 27 27
4 3 3 3 4 5 3 6 6 9 9 9 15 13 11 11 16 24 24 22 25 26 27 29 29 29 30 31 32 33 33 33 33 34 33 32 31 31 30 30 30 30 29 28 27 28 28 28 27
3 6 7 4 6 3 3 8 4 7 8 7 9 9 9 12 19 23 21 23 26 26 28 29 29 29 30 32 33 34 34 34 34 32 31 30 31 30 30 30 30 30 30 29 29 29 29 28 28
Wind_Direction
97 133 146 146 62 68 17 323 281 73 77 55 85 74 93 53 26 84 337 321 347 355 356 355 6 11 18 16 359 340 8 119 162 138 71 25 294 258 247 239 249 255 265 267 268 253 238 242 244
125 300 241 126 91 80 273 342 44 11 130 111 67 48 46 68 41 357 38 356 359 358 358 357 3 8 9 7 11 342 327 324 346 32 187 175 26 286 257 257 258 255 260 269 264 258 254 259 253
341 329 325 84 114 158 165 55 105 72 137 65 102 69 62 4 354 1 355 355 359 0 3 4 1 357 358 356 354 341 326 316 307 318 340 205 194 217 239 254 254 258 263 265 264 259 261 264 272
276 336 60 76 50 16 52 9 125 129 72 55 92 71 81 33 14 356 352 357 359 7 9 6 6 2 360 353 339 328 322 315 316 298 303 297 280 220 225 235 248 248 254 262 267 268 267 264 267
9 69 63 73 85 99 51 68 99 81 99 52 126 118 77 27 20 2 3 0 5 8 8 7 5 4 3 356 332 324 325 317 307 312 298 292 288 286 276 242 244 247 249 248 256 264 266 265 263
46 68 70 165 140 138 93 77 90 71 67 62 79 93 91 32 23 21 12 9 9 7 8 7 6 4 359 352 346 331 328 329 322 313 309 306 290 281 266 269 265 254 254 255 251 253 259 264 260
111 80 155 118 144 132 113 92 62 86 63 33 91 77 118 47 35 24 19 15 11 8 4 4 3 3 360 355 351 345 339 335 328 322 313 310 305 291 277 266 259 257 258 256 255 249 249 253 258
93 94 106 98 184 172 81 93 72 63 70 81 101 113 105 46 36 26 20 19 18 16 13 10 4 358 354 352 350 350 342 337 331 330 326 313 300 293 289 275 263 261 256 252 254 254 250 245 252
77 65 150 171 155 148 140 99 68 90 101 71 82 102 98 67 43 26 23 20 17 13 11 8 4 2 359 355 350 342 338 335 329 324 319 315 311 305 298 292 279 265 259 256 252 250 251 251 249
68 93 138 40 72 124 83 101 125 117 101 86 94 100 95 67 44 28 23 21 18 16 13 10 5 2 360 356 351 347 342 338 334 330 324 317 316 315 307 302 293 281 266 258 257 253 248 247 248
38 89 127 25 106 122 107 93 109 127 65 163 144 121 98 72 52 41 34 28 23 19 13 10 7 5 360 356 353 348 346 341 336 331 326 322 316 310 307 303 297 291 277 267 256 252 252 245 244
85 46 64 83 85 93 84 113 71 56 115 128 122 112 89 62 48 39 34 28 22 18 14 10 5 1 358 354 350 347 344 339 335 333 328 322 318 313 310 306 302 301 295 281 271 266 255 249 244
80 112 60 96 93 94 114 80 120 111 133 132 126 112 86 67 55 41 32 24 18 12 8 3 359 356 354 350 346 342 338 335 332 328 325 322 319 315 310 307 304 300 298 294 283 270 269 257 244
90 103 118 72 95 115 111 140 101 158 152 143 138 119 96 73 56 41 30 21 13 8 3 0 356 353 350 347 343 339 333 328 324 323 323 321 316 314 312 306 304 301 297 296 291 281 269 263 262
118 90 76 28 109 118 126 150 216 166 165 153 145 130 113 87 58 36 25 15 10 6 1 357 355 352 349 347 344 340 335 326 321 320 318 317 316 314 309 307 303 301 298 295 291 284 276 268 259
66 83 162 18 6 169 88 244 143 167 171 163 157 148 130 100 58 36 23 12 4 359 356 355 352 348 345 342 340 339 338 335 329 323 321 318 315 314 309 306 303 301 299 297 294 288 280 274 264
13 223 215 232 39 188 196 248 162 181 187 172 172 164 148 111 53 30 18 8 3 359 353 349 346 343 338 333 328 323 322 324 325 326 326 322 319 315 312 308 305 301 299 298 297 291 288 279 274
205 232 269 250 356 343 214 217 168 184 190 183 178 176 175 164 43 19 8 1 357 355 352 347 345 341 338 336 333 329 326 324 323 321 320 323 322 317 315 311 307 303 300 296 296 295 291 285 280
93 141 252 245 14 316 235 233 193 185 187 180 183 185 186 185 18 1 356 352 353 352 348 344 340 339 338 337 333 328 327 324 323 323 319 317 318 320 316 314 309 305 301 298 297 298 297 286 285
134 186 238 285 250 342 259 249 194 183 190 193 189 191 195 208 316 341 345 349 351 347 344 339 336 336 334 330 327 322 320 319 318 319 320 319 317 316 315 314 311 306 302 298 296 299 297 290 287
162 210 196 247 318 239 319 261 189 192 191 197 202 200 204 230 311 334 340 344 343 340 338 335 331 331 332 329 325 322 318 317 318 317 316 316 314 314 314 312 309 307 304 300 297 299 300 293 287
231 130 84 305 3 263 345 288 237 190 197 203 204 206 209 236 302 324 333 337 335 334 332 327 324 326 328 326 323 320 317 316 317 315 314 313 312 314 313 311 307 305 303 299 295 293 290 293 290
76 37 327 203 190 9 204 160 280 130 226 220 214 215 220 243 297 318 329 329 328 329 328 323 321 323 325 325 321 316 314 314 314 314 314 314 313 311 311 311 308 302 300 298 294 291 288 286 285
68 96 85 65 88 317 185 160 257 189 213 236 208 220 226 247 285 309 317 320 325 327 325 320 322 324 324 322 320 316 314 315 313 314 313 313 312 311 310 309 307 304 300 297 292 289 285 284 279
58 42 314 328 348 251 68 184 261 239 226 211 198 213 224 244 279 302 312 323 324 324 322 322 322 321 323 321 319 317 314 314 313 313 313 311 309 308 307 305 302 301 298 294 291 287 284 281 280
95 145 166 262 284 292 320 237 261 221 267 218 166 191 214 248 279 294 314 320 320 321 321 321 323 324 325 322 320 318 315 313 311 311 312 309 306 304 303 301 298 297 296 293 290 286 282 280 277
160 178 149 118 172 352 250 285 322 306 296 237 220 223 237 256 278 304 314 318 318 320 322 324 325 325 325 324 321 318 316 315 314 312 309 308 306 304 302 299 294 292 290 287 285 282 279 277 275
226 137 89 37 290 271 265 277 246 243 228 237 239 235 247 259 289 309 317 319 321 323 323 324 326 326 326 326 323 320 320 318 315 312 309 307 305 302 300 298 295 292 288 284 282 281 278 277 276
152 183 92 113 178 209 291 257 211 203 198 205 226 237 239 270 302 315 316 322 323 323 325 327 327 327 328 327 325 324 322 320 316 312 310 309 306 303 299 297 294 290 287 283 281 280 279 276 276
191 187 167 172 211 217 154 275 203 209 207 223 237 228 249 286 309 313 318 325 326 326 329 330 329 329 331 329 327 324 323 321 317 315 314 312 308 304 300 296 292 289 286 282 279 277 277 275 274
Height
1505 1506 1506 1506 1518 1526 1537 1529 1528 1530 1537 1542 1536 1537 1545 1553 1556 1561 1563 1563 1559 1554 1550 1547 1544 1542 1540 1539 1537 1537 1535 1532 1531 1532 1532 1532 1535 1534 1533 1533 1534 1535 1535 1536 1535 1536 1535 1536 1537
1506 1506 1506 1505 1526 1538 1539 1528 1534 1539 1539 1540 1540 1544 1547 1559 1560 1563 1562 1559 1555 1553 1551 1547 1544 1542 1540 1539 1537 1536 1536 1535 1533 1530 1529 1531 1532 1533 1533 1533 1534 1534 1534 1535 1535 1535 1536 1535 1536
1506 1506 1507 1514 1532 1534 1534 1533 1537 1540 1540 1540 1543 1548 1556 1565 1565 1564 1563 1559 1556 1554 1551 1547 1545 1541 1539 1537 1536 1535 1534 1533 1534 1532 1531 1530 1528 1530 1531 1531 1531 1532 1533 1533 1534 1534 1534 1534 1536
1506 1508 1511 1521 1527 1537 1535 1538 1538 1540 1541 1541 1545 1555 1562 1567 1566 1564 1562 1559 1558 1555 1550 1548 1545 1541 1539 1536 1535 1533 1532 1531 1530 1530 1530 1530 1528 1527 1527 1527 1529 1529 1530 1531 1532 1533 1532 1533 1532
1506 1506 1520 1527 1533 1535 1538 1538 1537 1539 1543 1545 1546 1558 1564 1566 1566 1564 1562 1559 1556 1553 1551 1548 1545 1543 1540 1536 1535 1533 1532 1531 1529 1528 1528 1527 1526 1526 1526 1526 1526 1527 1527 1528 1529 1530 1531 1531 1531
1507 1509 1525 1531 1532 1534 1538 1538 1539 1543 1546 1549 1551 1557 1566 1567 1565 1564 1562 1559 1556 1554 1551 1549 1546 1543 1540 1537 1534 1534 1533 1531 1528 1527 1526 1525 1525 1524 1524 1524 1524 1524 1525 1525 1525 1526 1527 1528 1529
1508 1515 1524 1529 1535 1534 1538 1538 1541 1546 1548 1551 1554 1560 1567 1566 1565 1564 1562 1560 1557 1554 1551 1547 1545 1543 1541 1539 1537 1534 1531 1529 1528 1526 1525 1524 1524 1522 1521 1521 1520 1521 1521 1522 1523 1523 1524 1525 1526
1507 1512 1524 1529 1532 1533 1537 1540 1545 1545 1550 1553 1553 1560 1566 1566 1565 1563 1562 1559 1555 1552 1549 1547 1546 1544 1542 1539 1536 1534 1532 1530 1527 1525 1524 1523 1522 1521 1519 1517 1517 1517 1517 1517 1519 1519 1519 1520 1522
1508 1520 1528 1526 1529 1533 1537 1540 1547 1549 1550 1554 1556 1560 1564 1565 1563 1562 1561 1559 1555 1552 1550 1548 1546 1543 1541 1539 1537 1535 1532 1529 1526 1524 1522 1521 1519 1518 1517 1515 1514 1512 1513 1513 1514 1514 1515 1516 1517
1510 1524 1525 1529 1530 1533 1537 1539 1545 1550 1552 1558 1560 1561 1562 1562 1561 1559 1557 1554 1552 1550 1548 1546 1544 1541 1539 1536 1534 1531 1529 1525 1523 1521 1518 1517 1516 1514 1513 1512 1510 1510 1508 1508 1508 1509 1510 1510 1512
1517 1525 1528 1531 1531 1532 1536 1541 1545 1548 1552 1554 1557 1559 1560 1560 1558 1558 1556 1553 1551 1550 1548 1545 1542 1540 1537 1535 1533 1529 1526 1524 1522 1520 1516 1515 1513 1511 1510 1508 1506 1505 1505 1504 1502 1503 1504 1505 1506
1524 1529 1529 1533 1534 1534 1538 1543 1548 1549 1554 1555 1557 1558 1559 1557 1557 1556 1554 1554 1552 1550 1548 1545 1543 1540 1537 1534 1529 1526 1524 1522 1519 1516 1514 1511 1509 1507 1504 1503 1502 1500 1499 1498 1498 1498 1497 1499 1499
1525 1531 1533 1535 1535 1537 1540 1544 1546 1554 1555 1556 1556 1558 1558 1557 1556 1556 1555 1553 1551 1549 1547 1544 1542 1539 1536 1534 1531 1527 1523 1518 1515 1514 1512 1508 1505 1504 1501 1500 1498 1495 1494 1493 1492 1493 1492 1491 1492
1528 1531 1535 1536 1536 1539 1543 1548 1546 1556 1553 1554 1555 1555 1556 1556 1556 1555 1553 1552 1550 1549 1546 1543 1541 1538 1534 1531 1528 1525 1521 1518 1515 1512 1508 1505 1501 1499 1497 1495 1492 1490 1489 1487 1487 1486 1486 1486 1485
1529 1534 1535 1537 1538 1539 1541 1547 1544 1547 1552 1553 1553 1553 1553 1553 1552 1552 1552 1550 1549 1546 1544 1540 1537 1535 1531 1528 1525 1522 1518 1515 1511 1509 1506 1502 1498 1494 1494 1492 1490 1487 1484 1483 1482 1480 1478 1478 1479
1532 1534 1535 1536 1536 1539 1540 1535 1548 1549 1549 1551 1552 1552 1552 1552 1551 1551 1550 1549 1547 1544 1541 1537 1534 1530 1527 1523 1519 1515 1512 1509 1507 1505 1502 1499 1495 1491 1489 1487 1485 1481 1480 1477 1475 1474 1472 1472 1471
1536 1532 1534 1536 1538 1538 1541 1540 1547 1550 1551 1552 1552 1553 1553 1552 1552 1551 1549 1547 1544 1541 1538 1536 1533 1529 1526 1524 1521 1518 1514 1509 1505 1500 1497 1494 1490 1488 1485 1483 1480 1477 1475 1473 1469 1469 1466 1463 1464
1539 1536 1537 1535 1541 1538 1537 1538 1542 1543 1544 1545 1546 1548 1549 1549 1550 1549 1548 1546 1543 1540 1536 1533 1529 1526 1523 1520 1516 1513 1509 1506 1504 1500 1495 1490 1487 1484 1481 1479 1475 1473 1470 1468 1465 1462 1461 1457 1458
1537 1537 1538 1537 1540 1539 1535 1533 1536 1537 1539 1540 1541 1544 1545 1546 1547 1547 1545 1544 1541 1537 1533 1530 1526 1523 1518 1514 1511 1508 1504 1500 1498 1495 1493 1489 1485 1480 1477 1474 1471 1470 1466 1465 1463 1459 1456 1455 1453
1537 1538 1540 1540 1540 1540 1533 1528 1529 1532 1533 1535 1536 1539 1542 1542 1542 1542 1542 1541 1538 1534 1531 1527 1523 1519 1516 1512 1509 1505 1501 1497 1494 1491 1487 1484 1480 1477 1473 1470 1467 1464 1461 1460 1459 1457 1454 1452 1450
1542 1539 1542 1543 1541 1537 1538 1526 1530 1531 1531 1534 1536 1536 1537 1538 1538 1538 1538 1537 1534 1531 1527 1523 1519 1516 1512 1508 1503 1499 1496 1492 1489 1486 1482 1479 1475 1472 1469 1466 1462 1459 1456 1453 1453 1453 1449 1446 1446
1534 1541 1543 1544 1546 1542 1538 1520 1529 1528 1530 1531 1532 1534 1535 1536 1537 1536 1534 1533 1531 1528 1524 1520 1517 1512 1508 1504 1499 1495 1490 1486 1483 1480 1476 1473 1470 1466 1463 1460 1457 1453 1451 1449 1449 1448 1445 1444 1441
1539 1542 1545 1546 1549 1556 1542 1552 1525 1530 1531 1529 1530 1532 1534 1535 1534 1534 1533 1531 1529 1524 1520 1516 1513 1508 1503 1498 1495 1490 1485 1482 1477 1474 1469 1465 1462 1460 1457 1455 1452 1449 1446 1444 1443 1440 1439 1440 1438
1542 1544 1547 1550 1553 1560 1536 1541 1519 1531 1527 1527 1526 1529 1532 1535 1535 1533 1531 1528 1525 1520 1516 1512 1508 1503 1498 1493 1489 1485 1480 1475 1470 1467 1462 1458 1455 1452 1450 1448 1445 1443 1440 1438 1435 1434 1434 1434 1433
1541 1541 1536 1537 1556 1523 1541 1547 1515 1524 1522 1520 1520 1525 1528 1529 1530 1529 1528 1524 1521 1516 1512 1508 1503 1497 1493 1488 1484 1479 1475 1470 1465 1461 1456 1453 1448 1446 1443 1441 1438 1436 1434 1432 1429 1427 1427 1427 1425
1543 1545 1547 1538 1541 1547 1552 1543 1516 1521 1518 1517 1518 1522 1524 1525 1526 1525 1522 1520 1516 1511 1507 1503 1497 1491 1487 1482 1477 1474 1469 1464 1459 1455 1451 1446 1443 1439 1436 1433 1430 1428 1427 1425 1423 1421 1420 1419 1418
1543 1543 1548 1563 1576 1575 1538 1527 1521 1519 1518 1518 1517 1520 1520 1519 1520 1519 1517 1514 1510 1506 1502 1497 1491 1486 1482 1477 1472 1467 1463 1458 1453 1448 1444 1439 1435 1431 1428 1425 1423 1421 1419 1418 1416 1414 1413 1412 1411
1541 1544 1550 1556 1551 1545 1538 1551 1518 1526 1519 1515 1514 1514 1514 1515 1515 1515 1511 1508 1504 1501 1497 1492 1487 1481 1476 1471 1466 1461 1456 1451 1447 1442 1436 1432 1428 1424 1420 1417 1415 1413 1411 1410 1409 1406 1405 1404 1404
1544 1546 1546 1549 1557 1554 1555 1522 1513 1510 1509 1508 1506 1509 1511 1512 1511 1510 1506 1502 1499 1496 1492 1487 1482 1476 1471 1466 1460 1454 1449 1444 1440 1434 1429 1425 1420 1417 1413 1410 1407 1405 1403 1402 1400 1398 1397 1396 1395
1531 1535 1534 1529 1546 1560 1566 1522 1501 1502 1503 1503 1503 1506 1508 1508 1507 1505 1501 1497 1494 1490 1486 1482 1477 1471 1466 1460 1454 1449 1443 1438 1432 1427 1422 1418 1413 1409 1406 1402 1399 1396 1394 1393 1392 1390 1389 1388 1387